This demonstration page uses our WeatherBlox Daily Observations layout. Learn more.

Left ArrowRight Arrow

Hourly Observations for September 23, 2021

Temp ( °F °C ) Dew Point ( °F °C ) Humidity (%) Winds ( mph kmh ) Pressure ( in mb ) Visibility ( mi km ) Precip ( " mm )
12:53 am 00:53 Cloudy 53 11.7 51 10.6 93 93 W 5 7 29.92 1013 10 16 0.01 0.25
1:53 am 01:53 Cloudy 53 11.7 51 10.6 93 93 VRB 3 6 29.91 1013 10 16 N/A
2:53 am 02:53 Cloudy 53 11.7 51 10.6 93 93 VRB 6 9 29.91 1013 10 16 N/A
3:53 am 03:53 Cloudy 53 11.7 50 10 89 89 W 7 11 29.91 1013 10 16 N/A
4:53 am 04:53 Cloudy with Light Rain 53 11.7 48 8.9 83 83 WNW 13 20 29.91 1013 10 16 0.00 0.00
5:53 am 05:53 Cloudy with Light Rain 52 11.1 48 8.9 86 86 WNW 3 6 29.92 1013 10 16 0.01 0.25
6:53 am 06:53 Cloudy 51 10.6 50 10 96 96 N N/A 29.92 1013 10 16 0.00 0.00
7:09 am 07:09 Cloudy 52 11.1 50 10 93 93 VRB 3 6 29.93 1013 10 16 N/A
7:53 am 07:53 Cloudy 52 11.1 51 10.6 97 97 VRB 5 7 29.92 1013 10 16 N/A
8:53 am 08:53 Cloudy 54 12.2 51 10.6 90 90 WSW 7 11 29.93 1014 10 16 N/A
9:53 am 09:53 Sunny 57 13.9 51 10.6 81 81 VRB 7 11 29.94 1014 10 16 N/A
10:53 am 10:53 Sunny 60 15.6 50 10 70 70 W 8 13 29.95 1014 10 16 N/A
11:53 am 11:53 Mostly Cloudy 64 17.8 50 10 60 60 WNW 9 15 29.95 1014 10 16 N/A
12:53 pm 12:53 Mostly Cloudy 63 17.2 50 10 63 63 W 9 15 29.96 1014 10 16 N/A
1:53 pm 13:53 Mostly Cloudy 59 15 49 9.4 69 69 NNW 12 19 29.96 1015 10 16 N/A
2:00 pm 14:00 Cloudy 57 13.9 49 9.4 74 74 NNW 12 19 29.97 1015 10 16 N/A
2:53 pm 14:53 Partly Cloudy 63 17.2 50 10 63 63 NW 12 19 29.96 1014 10 16 N/A
3:53 pm 15:53 Mostly Sunny 64 17.8 48 8.9 56 56 WNW 12 19 29.95 1014 10 16 N/A
4:53 pm 16:53 Cloudy 63 17.2 48 8.9 58 58 WNW 10 17 29.96 1015 10 16 N/A
5:53 pm 17:53 Cloudy 62 16.7 50 10 65 65 VRB 3 6 29.97 1015 10 16 N/A
6:53 pm 18:53 Mostly Cloudy 61 16.1 50 10 67 67 VRB 3 6 29.98 1015 10 16 N/A
7:53 pm 19:53 Cloudy 57 13.9 52 11.1 83 83 N N/A 29.99 1016 10 16 N/A
8:53 pm 20:53 Cloudy 52 11.1 49 9.4 89 89 N N/A 30.01 1016 10 16 N/A
9:53 pm 21:53 Clear 49 9.4 48 8.9 97 97 N N/A 30.03 1017 10 16 N/A
10:53 pm 22:53 Clear 48 8.9 47 8.3 96 96 N N/A 30.03 1017 10 16 N/A
11:53 pm 23:53 Clear 47 8.3 46 7.8 97 97 N N/A 30.04 1017 10 16 N/A

Powered by AerisWeather